| time (UTC) | temp F | wind direction | speed knots | gust knots | rain 1hr in | rain 24hr in | rain mn in | humidity % | barometer mb |
| 20260905224515 | 93 | 41 | 0.9 | 1.7 | 0.00 | 0.03 | 0.00 | 58 | 983.7 |
| 20260905223515 | 92 | 6 | 0.9 | 1.7 | 0.00 | 0.03 | 0.00 | 56 | 983.7 |
| 20260905222515 | 92 | 27 | 0.9 | 1.7 | 0.00 | 0.03 | 0.00 | 57 | 983.6 |
| 20260905221530 | 91 | 47 | 1.7 | 1.7 | 0.00 | 0.03 | 0.00 | 57 | 983.6 |
| 20260905220515 | 91 | 30 | 0.9 | 1.7 | 0.00 | 0.03 | 0.00 | 59 | 983.7 |
| 20260905215530 | 92 | 47 | 1.7 | 3.5 | 0.00 | 0.03 | 0.00 | 57 | 983.7 |
| 20260905214515 | 92 | 12 | 2.6 | 2.6 | 0.00 | 0.03 | 0.00 | 55 | 983.8 |
| 20260905213515 | 93 | 350 | 1.7 | 1.7 | 0.00 | 0.03 | 0.00 | 51 | 983.9 |
| 20260905212515 | 94 | 29 | 2.6 | 3.5 | 0.00 | 0.03 | 0.00 | 54 | 983.8 |
| 20260905211530 | 95 | 35 | 3.5 | 5.2 | 0.00 | 0.03 | 0.00 | 52 | 983.8 |
| 20260905210515 | 94 | 27 | 1.7 | 2.6 | 0.00 | 0.03 | 0.00 | 49 | 983.8 |
| 20260905205515 | 94 | 350 | 2.6 | 3.5 | 0.00 | 0.03 | 0.00 | 49 | 983.9 |
| 20260905204515 | 95 | 354 | 1.7 | 3.5 | 0.00 | 0.03 | 0.00 | 47 | 984.0 |
| 20260905203515 | 94 | 22 | 0.9 | 2.6 | 0.00 | 0.03 | 0.00 | 49 | 984.1 |
| 20260905202515 | 93 | 354 | 1.7 | 2.6 | 0.00 | 0.03 | 0.00 | 49 | 984.2 |
| 20260905201515 | 93 | 332 | 2.6 | 4.3 | 0.00 | 0.03 | 0.00 | 50 | 984.3 |
| 20260905200515 | 93 | 209 | 2.6 | 3.5 | 0.00 | 0.03 | 0.00 | 50 | 984.5 |
| 20260905195530 | 93 | 206 | 1.7 | 3.5 | 0.00 | 0.03 | 0.00 | 50 | 984.6 |
| 20260905194530 | 93 | 216 | 1.7 | 4.3 | 0.00 | 0.03 | 0.00 | 53 | 984.8 |
| 20260905193515 | 92 | 321 | 1.7 | 3.5 | 0.00 | 0.03 | 0.00 | 52 | 984.9 |
| 20260905192515 | 92 | 14 | 2.6 | 3.5 | 0.00 | 0.03 | 0.00 | 53 | 985.0 |
| 20260905191515 | 92 | 277 | 0.9 | 1.7 | 0.00 | 0.03 | 0.00 | 50 | 985.1 |
| 20260905190515 | 92 | 285 | 1.7 | 3.5 | 0.00 | 0.03 | 0.00 | 51 | 985.3 |
| 20260905185515 | 92 | 274 | 0.9 | 1.7 | 0.00 | 0.03 | 0.00 | 50 | 985.3 |
| 20260905184515 | 92 | 276 | 2.6 | 3.5 | 0.00 | 0.03 | 0.00 | 51 | 985.4 |
| 20260905183530 | 91 | 221 | 1.7 | 3.5 | 0.00 | 0.03 | 0.00 | 53 | 985.5 |
| 20260905182515 | 91 | 261 | 2.6 | 5.2 | 0.00 | 0.03 | 0.00 | 54 | 985.7 |
| 20260905181515 | 91 | 2 | 1.7 | 1.7 | 0.00 | 0.03 | 0.00 | 52 | 985.8 |
| 20260905180515 | 91 | 258 | 0.9 | 1.7 | 0.00 | 0.03 | 0.00 | 51 | 985.9 |
| 20260905175531 | 90 | 187 | 1.7 | 3.5 | 0.00 | 0.03 | 0.00 | 49 | 985.9 |
| 20260905174515 | 90 | 187 | 1.7 | 3.5 | 0.00 | 0.03 | 0.00 | 51 | 986.0 |
| 20260905173515 | 90 | 198 | 3.5 | 4.3 | 0.00 | 0.03 | 0.00 | 53 | 986.1 |
| 20260905172515 | 90 | 158 | 2.6 | 3.5 | 0.00 | 0.03 | 0.00 | 51 | 986.1 |
| 20260905171515 | 89 | 165 | 3.5 | 5.2 | 0.00 | 0.03 | 0.00 | 55 | 986.2 |
| 20260905170515 | 89 | 189 | 3.5 | 5.2 | 0.00 | 0.03 | 0.00 | 55 | 986.4 |
| 20260905165515 | 88 | 125 | 0.9 | 2.6 | 0.00 | 0.03 | 0.00 | 54 | 986.6 |
| 20260905164515 | 88 | 221 | 1.7 | 3.5 | 0.00 | 0.03 | 0.00 | 58 | 986.8 |
| 20260905163515 | 87 | 133 | 3.5 | 5.2 | 0.00 | 0.03 | 0.00 | 55 | 986.9 |
| 20260905162515 | 86 | 151 | 1.7 | 4.3 | 0.00 | 0.03 | 0.00 | 56 | 986.8 |
| 20260905161530 | 86 | 172 | 1.7 | 3.5 | 0.00 | 0.03 | 0.00 | 62 | 986.8 |
| 20260905160515 | 86 | 172 | 3.5 | 5.2 | 0.00 | 0.03 | 0.00 | 61 | 986.8 |
| 20260905155515 | 85 | 167 | 1.7 | 4.3 | 0.00 | 0.03 | 0.00 | 60 | 986.8 |
| 20260905154515 | 85 | 163 | 2.6 | 5.2 | 0.00 | 0.03 | 0.00 | 61 | 986.8 |
| 20260905153515 | 83 | 144 | 1.7 | 3.5 | 0.00 | 0.03 | 0.00 | 63 | 986.9 |
| 20260905152515 | 83 | 141 | 4.3 | 7.0 | 0.00 | 0.03 | 0.00 | 63 | 986.8 |
| 20260905151515 | 82 | 133 | 2.6 | 4.3 | 0.00 | 0.03 | 0.00 | 65 | 987.0 |
| 20260905150515 | 81 | 139 | 3.5 | 4.3 | 0.00 | 0.03 | 0.00 | 66 | 987.1 |
| 20260905145515 | 80 | 154 | 3.5 | 5.2 | 0.00 | 0.03 | 0.00 | 69 | 987.1 |
| 20260905144515 | 80 | 129 | 2.6 | 3.5 | 0.00 | 0.03 | 0.00 | 70 | 987.3 |
| 20260905143515 | 79 | 117 | 4.3 | 6.1 | 0.00 | 0.03 | 0.00 | 70 | 987.4 |
| 20260905142530 | 78 | 111 | 4.3 | 7.0 | 0.00 | 0.03 | 0.00 | 72 | 987.5 |
| 20260905141515 | 78 | 101 | 2.6 | 4.3 | 0.00 | 0.03 | 0.00 | 75 | 987.5 |
| 20260905140515 | 78 | 97 | 3.5 | 6.1 | 0.00 | 0.03 | 0.00 | 73 | 987.7 |
| 20260905135515 | 78 | 73 | 3.5 | 5.2 | 0.02 | 0.03 | 0.00 | 74 | 987.9 |
| 20260905134530 | 77 | 87 | 3.5 | 4.3 | 0.02 | 0.03 | 0.00 | 76 | 987.8 |
| 20260905133515 | 76 | 69 | 3.5 | 7.0 | 0.02 | 0.03 | 0.00 | 79 | 987.5 |
| 20260905132515 | 74 | 89 | 5.2 | 7.0 | 0.02 | 0.03 | 0.00 | 84 | 987.6 |
| 20260905131515 | 74 | 75 | 5.2 | 7.8 | 0.02 | 0.03 | 0.00 | 88 | 987.6 |
| 20260905130530 | 74 | 64 | 3.5 | 6.1 | 0.02 | 0.03 | 0.00 | 89 | 988.1 |
| 20260905125515 | 74 | 53 | 4.3 | 5.2 | 0.00 | 0.03 | 0.00 | 87 | 988.2 |
| 20260905124515 | 73 | 4 | 0.9 | 2.6 | 0.00 | 0.01 | 0.00 | 88 | 988.3 |
| 20260905123515 | 73 | 56 | 2.6 | 3.5 | 0.00 | 0.01 | 0.00 | 87 | 988.2 |
| 20260905122515 | 72 | 44 | 3.5 | 4.3 | 0.00 | 0.01 | 0.00 | 90 | 988.2 |
| 20260905121515 | 72 | 171 | 1.7 | 3.5 | 0.00 | 0.01 | 0.00 | 91 | 987.1 |
| 20260905120515 | 72 | 190 | 2.6 | 3.5 | 0.00 | 0.01 | 0.00 | 90 | 987.3 |
| 20260905115515 | 72 | 42 | 1.7 | 1.7 | 0.00 | 0.01 | 0.00 | 90 | 987.1 |
| 20260905114515 | 72 | 0 | 0.0 | 0.0 | 0.00 | 0.01 | 0.00 | 89 | 987.0 |
| 20260905113515 | 73 | 87 | 0.9 | 1.7 | 0.00 | 0.01 | 0.00 | 89 | 986.8 |
| 20260905112515 | 73 | 79 | 1.7 | 2.6 | 0.00 | 0.01 | 0.00 | 89 | 986.8 |
| 20260905111515 | 73 | 77 | 1.7 | 3.5 | 0.00 | 0.01 | 0.00 | 89 | 986.5 |
| 20260905110515 | 74 | 46 | 2.6 | 3.5 | 0.00 | 0.01 | 0.00 | 88 | 986.6 |
| 20260905105530 | 74 | 20 | 3.5 | 6.1 | 0.00 | 0.01 | 0.00 | 85 | 986.6 |
| 20260905104515 | 74 | 73 | 1.7 | 3.5 | 0.00 | 0.01 | 0.00 | 86 | 986.3 |
| 20260905103515 | 74 | 48 | 2.6 | 4.3 | 0.00 | 0.01 | 0.00 | 91 | 986.3 |
| 20260905102515 | 74 | 161 | 0.0 | 0.9 | 0.00 | 0.01 | 0.00 | 90 | 985.7 |
| 20260905101515 | 75 | 166 | 0.9 | 1.7 | 0.00 | 0.01 | 0.00 | 90 | 985.6 |
| 20260905100530 | 76 | 190 | 0.9 | 1.7 | 0.00 | 0.01 | 0.00 | 89 | 985.6 |
| 20260905095530 | 76 | 130 | 0.9 | 1.7 | 0.00 | 0.01 | 0.00 | 88 | 985.9 |
| 20260905094515 | 77 | 0 | 0.0 | 0.0 | 0.01 | 0.01 | 0.00 | 87 | 985.8 |
| 20260905093530 | 78 | 356 | 2.6 | 3.5 | 0.01 | 0.01 | 0.00 | 84 | 985.7 |
| 20260905092515 | 78 | 345 | 2.6 | 3.5 | 0.01 | 0.01 | 0.00 | 80 | 985.7 |
| 20260905091515 | 76 | 338 | 2.6 | 2.6 | 0.01 | 0.01 | 0.00 | 87 | 985.6 |
| 20260905090515 | 76 | 190 | 0.9 | 1.7 | 0.00 | 0.00 | 0.00 | 95 | 985.2 |
| 20260905085530 | 76 | 95 | 1.7 | 2.6 | 0.00 | 0.00 | 0.00 | 96 | 985.1 |
| 20260905084515 | 75 | 193 | 1.7 | 1.7 | 0.00 | 0.00 | 0.00 | 97 | 985.6 |
| 20260905083515 | 74 | 332 | 1.7 | 1.7 | 0.00 | 0.00 | 0.00 | 99 | 985.7 |
| 20260905082515 | 74 | 335 | 0.0 | 0.9 | 0.00 | 0.00 | 0.00 | 99 | 985.3 |
| 20260905081515 | 74 | 0 | 0.0 | 0.0 | 0.00 | 0.00 | 0.00 | 98 | 985.2 |
| 20260905080515 | 74 | 0 | 0.0 | 0.0 | 0.00 | 0.00 | 0.00 | 98 | 985.1 |
| 20260905075515 | 74 | 0 | 0.0 | 0.0 | 0.00 | 0.00 | 0.00 | 99 | 985.1 |
| 20260905074515 | 74 | 0 | 0.0 | 0.0 | 0.00 | 0.00 | 0.00 | 98 | 985.3 |
| 20260905073530 | 73 | 0 | 0.0 | 0.0 | 0.00 | 0.00 | 0.00 | 98 | 985.3 |
| 20260905072515 | 74 | 0 | 0.0 | 0.0 | 0.00 | 0.00 | 0.00 | 98 | 985.5 |
| 20260905071515 | 74 | 0 | 0.0 | 0.0 | 0.00 | 0.00 | 0.00 | 98 | 985.6 |
| 20260905070515 | 74 | 41 | 0.9 | 0.9 | 0.00 | 0.00 | 0.00 | 98 | 985.6 |
| 20260905065515 | 74 | 0 | 0.0 | 0.0 | 0.00 | 0.00 | 0.00 | 97 | 985.7 |
| 20260905064515 | 74 | 337 | 0.0 | 0.9 | 0.00 | 0.00 | 0.00 | 97 | 985.9 |
| 20260905063515 | 75 | 0 | 0.0 | 0.0 | 0.00 | 0.00 | 0.00 | 96 | 985.9 |
| 20260905062515 | 75 | 0 | 0.0 | 0.0 | 0.00 | 0.00 | 0.00 | 96 | 986.0 |
| 20260905061515 | 75 | 29 | 0.0 | 0.9 | 0.00 | 0.00 | 0.00 | 96 | 986.1 |
| 20260905060515 | 75 | 0 | 0.0 | 0.0 | 0.00 | 0.00 | 0.00 | 97 | 986.3 |
| 20260905055515 | 75 | 324 | 0.0 | 0.9 | 0.00 | 0.00 | 0.00 | 96 | 986.3 |
| 20260905054530 | 76 | 0 | 0.0 | 0.0 | 0.00 | 0.00 | 0.00 | 94 | 986.4 |
| 20260905053515 | 76 | 0 | 0.0 | 0.0 | 0.00 | 0.00 | 0.00 | 94 | 986.4 |
| 20260905052515 | 75 | 0 | 0.0 | 0.0 | 0.00 | 0.00 | 0.00 | 96 | 986.4 |
| 20260905051515 | 75 | 233 | 0.0 | 0.9 | 0.00 | 0.00 | 0.00 | 97 | 986.4 |
| 20260905050515 | 75 | 287 | 0.0 | 0.9 | 0.00 | 0.00 | 0.00 | 96 | 986.4 |
| 20260905045515 | 75 | 326 | 0.0 | 0.9 | 0.00 | 0.00 | 0.00 | 95 | 986.5 |
| 20260905044515 | 76 | 0 | 0.0 | 0.0 | 0.00 | 0.00 | 0.00 | 95 | 986.6 |
| 20260905043515 | 76 | 58 | 0.0 | 0.0 | 0.00 | 0.00 | 0.00 | 95 | 986.6 |
| 20260905042515 | 76 | 0 | 0.0 | 0.0 | 0.00 | 0.00 | 0.00 | 95 | 986.7 |
| 20260905041515 | 76 | 103 | 0.0 | 0.9 | 0.00 | 0.00 | 0.00 | 95 | 986.6 |
| 20260905040515 | 76 | 0 | 0.0 | 0.0 | 0.00 | 0.00 | 0.00 | 94 | 986.5 |
| 20260905035515 | 76 | 0 | 0.0 | 0.0 | 0.00 | 0.00 | 0.00 | 94 | 986.5 |
| 20260905034530 | 77 | 0 | 0.0 | 0.0 | 0.00 | 0.00 | 0.00 | 94 | 986.6 |
| 20260905033515 | 76 | 36 | 0.0 | 0.9 | 0.00 | 0.00 | 0.00 | 94 | 986.6 |
| 20260905032515 | 77 | 3 | 0.0 | 0.9 | 0.00 | 0.00 | 0.00 | 94 | 986.8 |
| 20260905031530 | 77 | 270 | 0.0 | 0.0 | 0.00 | 0.00 | 0.00 | 93 | 986.8 |
| 20260905030515 | 77 | 0 | 0.0 | 0.0 | 0.00 | 0.00 | 0.00 | 94 | 986.8 |
| 20260905025515 | 77 | 5 | 0.0 | 0.9 | 0.00 | 0.00 | 0.00 | 94 | 986.8 |
| 20260905024515 | 77 | 0 | 0.0 | 0.0 | 0.00 | 0.00 | 0.00 | 93 | 986.8 |
| 20260905023515 | 78 | 57 | 0.0 | 0.0 | 0.00 | 0.00 | 0.00 | 92 | 986.7 |
| 20260905022515 | 78 | 317 | 0.0 | 0.0 | 0.00 | 0.00 | 0.00 | 92 | 986.6 |
| 20260905021515 | 78 | 0 | 0.0 | 0.0 | 0.00 | 0.00 | 0.00 | 91 | 986.6 |
| 20260905020515 | 79 | 19 | 0.0 | 0.0 | 0.00 | 0.00 | 0.00 | 90 | 986.6 |
| 20260905015515 | 79 | 305 | 0.0 | 0.9 | 0.00 | 0.00 | 0.00 | 91 | 986.6 |
| 20260905014515 | 79 | 23 | 0.0 | 0.9 | 0.00 | 0.00 | 0.00 | 89 | 986.5 |
| 20260905013515 | 79 | 346 | 0.0 | 0.9 | 0.00 | 0.00 | 0.00 | 89 | 986.4 |
| 20260905012515 | 80 | 339 | 0.0 | 0.9 | 0.00 | 0.00 | 0.00 | 88 | 986.3 |
| 20260905011515 | 80 | 39 | 0.9 | 1.7 | 0.00 | 0.00 | 0.00 | 87 | 986.2 |
| 20260905010515 | 81 | 34 | 0.0 | 0.9 | 0.00 | 0.00 | 0.00 | 87 | 986.1 |
| 20260905005515 | 81 | 126 | 0.0 | 0.9 | 0.00 | 0.00 | 0.00 | 85 | 986.0 |
| 20260905004515 | 82 | 344 | 0.0 | 0.9 | 0.00 | 0.00 | 0.00 | 83 | 986.0 |
| 20260905003515 | 83 | 0 | 0.0 | 0.0 | 0.00 | 0.00 | 0.00 | 82 | 985.9 |
| 20260905002515 | 84 | 36 | 1.7 | 1.7 | 0.00 | 0.00 | 0.00 | 79 | 985.9 |
| 20260905001530 | 86 | 16 | 0.0 | 0.9 | 0.00 | 0.00 | 0.00 | 76 | 985.7 |
| 20260905000515 | 87 | 357 | 0.0 | 0.9 | 0.00 | 0.00 | 0.00 | 70 | 985.7 |
| 20260904235515 | 90 | 351 | 0.0 | 0.9 | 0.00 | 0.00 | 0.00 | 68 | 985.6 |
| 20260904234515 | 91 | 246 | 0.0 | 0.9 | 0.00 | 0.00 | 0.00 | 64 | 985.6 |
| 20260904233515 | 93 | 227 | 0.9 | 0.9 | 0.00 | 0.00 | 0.00 | 60 | 985.8 |
| 20260904232515 | 94 | 47 | 0.9 | 0.9 | 0.00 | 0.00 | 0.00 | 59 | 985.8 |
| 20260904231530 | 94 | 47 | 0.9 | 0.9 | 0.00 | 0.00 | 0.00 | 53 | 985.9 |
| 20260904230515 | 95 | 45 | 0.9 | 0.9 | 0.00 | 0.00 | 0.00 | 54 | 985.9 |
| 20260904225515 | 95 | 45 | 0.0 | 0.9 | 0.00 | 0.00 | 0.00 | 58 | 986.0 |